Torna al catalogo

COSMOS 1275 DEB

AttivoPO
NORAD 17635·DEBRIS·🇷🇺 Russia

Lanciato Jun 4, 1981 da Plesetsk Cosmodrome

Loading…

Prossimi Passaggi (prossime 24 ore)

TLE

AggiornatoSource: Space-Track

Epoca: Sep 14, 2026, 20:23 UTC

1 17635U 81053LE  26257.84958321  .00002053  00000-0  88134-3 0  9998
2 17635  82.8206 307.2219 0033254   9.0335 351.1439 14.24063189110939

Traccia COSMOS 1275 DEB in tempo reale con AllMySat

Download on the App Store